Wind_Speed
19 19 19 18 21 18 17 18 19 19 18 18 17 16 16 16 16 16 15 14 13 12 12 11 11 11 11 10 10 11 12 12 12 11 11 11 10 10 10 11 11 11 11 11 11 11 10 10 10
18 18 18 19 19 16 18 19 19 19 19 18 17 17 16 16 15 15 14 14 13 12 11 10 10 10 10 10 10 11 11 11 11 11 10 10 10 10 10 11 11 11 11 11 11 11 10 10 9
17 18 17 18 16 16 18 19 19 19 19 18 18 17 17 16 15 14 13 13 13 12 11 10 10 10 10 10 10 10 10 11 11 10 10 10 10 10 10 10 11 11 11 10 11 10 10 9 9
16 16 16 15 15 16 18 18 19 20 20 19 18 18 18 17 15 14 13 13 12 11 10 9 9 9 9 10 10 10 10 11 10 10 9 10 10 10 10 11 11 10 9 10 10 10 9 9 8
15 16 14 13 13 15 17 18 19 20 20 19 19 18 17 16 15 14 14 13 13 12 10 10 9 9 10 10 10 10 10 10 10 10 9 9 9 9 9 9 9 9 9 10 9 9 9 9 8
14 15 12 12 13 14 16 16 18 18 19 18 18 18 17 16 15 14 14 13 13 12 11 11 11 10 10 10 10 10 9 9 9 10 10 9 9 8 8 8 8 9 9 9 8 8 8 8 7
13 13 11 12 12 14 15 15 17 17 18 18 18 18 18 17 15 14 14 13 13 12 12 12 11 11 11 11 10 10 9 9 9 9 9 9 9 8 7 7 8 8 8 7 7 7 7 7 7
12 12 10 11 12 13 14 15 16 17 17 17 17 17 17 17 16 14 14 13 13 12 12 12 12 12 11 11 10 9 9 8 8 8 8 8 8 8 8 8 8 8 7 7 7 7 7 6 6
11 11 9 10 12 12 13 14 15 15 16 16 17 16 16 16 15 14 14 13 13 12 12 11 11 11 11 11 11 10 9 9 8 8 8 7 8 8 8 7 8 8 7 7 7 7 6 6 6
10 8 8 10 11 12 13 14 14 15 16 16 16 16 15 15 14 13 13 13 13 12 12 11 11 11 11 10 10 10 10 9 9 9 8 8 8 7 7 7 8 8 7 7 7 6 6 6 6
7 8 8 9 10 11 12 13 13 14 15 15 15 15 14 14 13 12 12 12 12 12 11 11 10 10 10 10 10 10 9 9 8 9 8 7 7 6 7 7 7 7 7 7 6 6 5 5 5
6 6 7 8 8 9 10 11 12 13 13 13 14 14 13 13 12 12 11 11 11 11 10 10 9 9 9 9 9 9 8 8 7 7 7 7 6 6 6 6 6 6 6 6 5 5 4 4 4
4 5 6 6 7 8 8 9 10 11 11 12 12 12 13 12 11 11 11 10 10 10 9 9 9 9 9 9 8 8 8 7 7 6 6 6 6 6 6 5 5 5 5 5 4 4 4 4 3
4 4 3 4 5 6 6 7 8 9 10 10 10 11 11 12 11 10 10 10 9 9 8 8 8 8 8 8 8 8 7 6 6 5 5 5 5 5 4 4 3 3 3 3 3 3 3 2 2
5 4 3 3 3 4 5 6 7 7 8 8 9 9 10 10 10 9 9 9 9 8 8 7 7 7 7 7 7 7 7 6 5 5 4 4 4 3 3 2 2 2 2 2 2 1 2 1 1
7 5 4 3 3 3 4 4 5 6 7 7 8 8 9 9 9 9 8 8 8 8 8 7 6 6 6 6 6 7 6 6 4 4 4 3 3 2 2 1 1 1 1 1 1 1 1 1 1
9 8 7 6 5 3 2 2 3 4 5 6 6 7 7 8 8 8 8 7 8 8 8 7 6 6 6 6 6 6 7 6 5 4 4 3 2 2 2 2 1 1 1 1 2 2 2 2 2
11 10 9 8 7 5 3 1 0 2 4 5 5 5 6 7 8 7 7 7 7 8 9 8 7 7 6 6 6 6 6 6 6 6 4 3 3 3 2 3 2 2 3 3 2 2 3 3 3
14 12 11 10 8 7 5 3 2 2 3 4 4 4 5 6 7 7 7 7 7 8 9 8 7 7 7 7 7 7 6 6 6 6 5 4 4 4 3 4 3 4 4 4 3 3 4 4 5
15 14 13 11 10 8 7 6 5 4 3 3 3 3 4 5 6 6 7 7 8 8 8 9 8 9 9 8 8 7 7 7 7 6 6 5 5 4 4 4 4 4 4 4 4 5 5 6 6
17 16 15 14 12 11 9 7 7 5 4 4 4 4 4 4 5 6 7 7 8 9 9 9 9 9 10 9 8 8 8 8 8 8 7 7 6 6 6 5 5 5 4 5 5 5 5 6 7
20 19 18 16 14 13 11 9 9 7 6 5 5 5 5 4 5 6 7 8 8 8 9 9 9 9 9 8 8 8 8 9 9 9 8 8 7 7 6 6 6 6 6 6 6 6 6 7 7
23 21 19 18 16 14 13 11 11 10 8 7 6 6 5 5 5 7 7 7 8 9 9 9 9 9 8 8 8 8 9 9 10 10 10 9 8 8 7 7 7 7 7 7 6 6 7 8 8
25 23 21 20 18 18 16 13 12 11 9 8 8 7 6 5 6 7 7 8 9 9 9 8 10 10 9 8 9 9 9 10 10 10 10 9 9 8 9 9 9 9 9 8 7 7 7 8 8
28 25 23 22 22 20 18 15 14 12 10 10 9 8 8 8 8 8 8 8 9 10 9 9 9 10 10 9 10 10 10 11 11 11 11 10 10 10 10 10 9 9 8 9 8 8 8 9 9
28 27 25 22 20 20 20 17 15 13 12 11 10 9 9 9 9 9 9 10 10 10 10 9 10 11 11 11 11 11 11 12 12 12 12 11 11 11 11 10 9 9 10 10 9 10 10 10 10
30 30 26 24 22 20 20 18 16 15 14 12 11 11 10 10 10 10 10 11 11 11 11 11 11 11 12 12 12 12 12 12 13 14 13 12 11 11 11 10 10 10 11 10 10 11 11 12 12
32 30 29 27 24 21 20 19 17 17 16 14 12 12 11 11 11 11 11 11 12 12 11 12 12 13 12 12 12 13 12 13 14 14 12 12 12 11 11 10 10 10 10 10 11 11 12 12 13
33 32 31 29 27 22 20 19 18 18 16 15 14 13 12 12 12 12 12 12 12 12 13 13 13 14 13 13 13 12 12 13 14 13 12 11 10 10 10 10 10 10 9 10 11 12 12 12 13
34 34 32 30 29 26 21 19 20 18 17 16 15 14 14 13 13 13 13 13 13 13 14 14 14 14 14 15 14 13 13 14 13 12 12 12 11 11 10 10 9 9 10 11 11 13 13 13 13
Wind_Direction
67 67 67 69 70 72 74 75 74 74 73 74 77 77 79 78 77 76 76 74 74 73 75 79 81 85 88 90 93 99 99 98 98 100 102 99 98 98 101 103 104 104 104 104 105 102 103 104 103
67 67 66 67 71 72 73 73 74 73 72 73 75 76 76 74 74 75 75 74 73 73 73 74 79 84 88 90 93 97 97 98 99 99 102 102 102 103 105 105 104 104 105 105 107 108 106 106 106
67 66 66 68 72 74 73 73 73 72 70 71 72 72 72 71 69 71 72 73 72 73 74 76 79 81 86 91 92 96 98 99 99 99 102 102 103 106 108 105 105 107 107 107 111 113 110 108 105
66 66 65 69 70 73 74 73 73 72 69 69 69 69 69 69 67 69 70 70 70 69 70 75 78 80 83 87 89 93 97 100 100 99 101 106 105 107 109 109 109 109 107 112 115 117 114 111 110
69 67 66 69 69 72 73 73 73 72 68 66 67 68 67 67 65 65 66 67 66 65 68 73 76 79 82 85 89 92 94 97 98 98 101 106 109 111 114 116 114 111 112 113 115 119 116 115 112
71 70 73 72 71 72 73 72 73 71 67 65 64 65 65 64 63 64 64 66 67 66 68 74 78 79 79 83 89 92 95 95 97 104 108 107 110 116 119 117 115 113 115 116 118 121 119 118 113
78 78 77 77 73 72 73 71 71 70 68 65 63 63 62 61 59 61 63 64 65 64 67 71 76 79 80 83 86 90 90 91 97 102 104 105 105 115 116 117 118 115 114 117 118 121 121 119 114
78 79 77 78 76 73 72 71 69 68 68 67 65 63 61 59 58 58 59 61 62 62 63 68 74 77 79 81 84 85 88 89 93 99 103 105 101 105 108 110 117 120 118 122 122 121 122 121 115
79 85 86 83 81 75 71 70 69 68 67 65 64 62 60 58 57 55 55 56 58 59 62 66 71 73 76 78 79 78 82 86 92 96 99 104 102 103 107 111 112 109 111 112 111 112 110 112 110
85 96 92 84 82 78 72 69 68 67 65 62 62 62 60 58 57 56 56 56 56 57 61 65 67 69 71 73 75 76 80 80 86 93 96 100 101 101 107 114 113 108 113 110 110 112 107 105 103
90 98 94 85 80 78 74 70 68 66 63 61 59 58 57 56 56 58 58 57 56 55 58 60 62 64 65 66 69 72 76 77 82 85 92 93 92 96 104 111 110 112 115 113 112 111 109 106 105
102 95 99 91 82 79 76 71 68 66 63 60 57 55 55 54 55 55 55 55 55 55 56 58 59 59 59 61 63 65 69 73 76 82 88 89 89 96 104 110 113 116 118 119 120 118 117 113 112
125 109 100 96 92 82 78 72 68 65 61 58 55 52 52 51 50 50 50 51 52 53 53 55 55 52 51 53 54 56 62 68 69 72 82 90 94 98 101 101 109 113 114 117 125 130 129 126 123
155 142 121 106 102 90 80 74 69 66 61 55 52 50 49 46 44 44 45 45 45 46 48 50 49 48 45 46 46 48 54 61 66 66 69 85 92 89 102 109 111 121 128 133 137 138 142 154 146
185 183 173 152 131 106 89 75 70 66 63 55 50 46 43 39 38 37 38 38 39 39 38 39 41 44 42 42 43 42 44 48 55 57 50 54 74 76 81 97 118 132 142 150 145 137 130 153 188
203 202 207 203 175 144 104 78 63 62 59 53 49 46 41 37 33 30 29 30 31 30 28 28 32 35 34 36 39 33 32 34 34 33 32 30 35 39 39 50 122 165 190 196 210 222 192 218 232
211 212 217 223 206 189 140 103 58 53 46 42 39 38 37 33 28 24 22 23 26 22 17 16 20 20 19 20 25 25 22 27 27 20 17 14 13 25 6 333 308 270 259 254 245 265 267 273 272
218 218 223 232 219 212 204 216 348 30 23 21 22 21 20 22 20 16 16 18 17 14 10 10 11 10 7 8 13 17 18 17 17 20 17 9 10 359 346 322 304 292 296 291 273 270 266 274 280
218 219 226 232 225 220 224 233 265 309 348 355 1 4 2 6 9 12 13 14 10 7 10 8 6 7 6 9 10 8 7 6 7 11 8 1 351 343 340 330 307 292 293 296 290 275 264 268 272
223 224 229 235 232 232 237 245 259 270 299 322 333 342 348 355 3 3 7 7 6 3 5 6 5 5 5 2 3 1 359 357 357 355 349 348 346 335 326 322 314 294 289 289 286 279 273 275 276
225 227 232 239 239 239 244 253 254 259 270 289 308 311 317 333 343 347 351 355 358 358 358 358 359 355 354 355 353 353 352 352 347 342 338 337 340 335 332 320 319 308 295 291 289 285 281 281 280
227 228 232 237 239 243 240 249 256 252 257 270 287 301 302 316 324 326 336 344 347 347 348 349 348 346 343 347 349 348 348 349 348 342 337 329 324 324 324 316 316 318 304 293 292 289 286 286 285
229 230 232 236 238 242 247 243 252 251 250 255 267 280 292 300 314 319 329 336 335 335 338 339 340 338 338 342 343 340 340 342 344 344 339 329 320 315 317 310 309 306 300 294 294 291 291 291 287
229 230 232 235 238 242 246 244 245 248 244 248 254 262 273 286 298 313 319 324 329 334 335 335 338 336 333 336 339 336 332 332 333 333 331 328 324 318 314 312 310 304 300 294 293 294 300 294 290
228 227 230 233 236 241 245 244 242 243 244 244 248 255 262 273 284 298 308 314 318 321 322 322 327 331 328 326 331 330 326 324 324 324 323 319 317 315 314 312 310 304 301 296 291 293 300 297 292
227 227 226 230 238 242 246 244 242 242 244 246 250 252 257 264 278 289 296 304 308 310 311 315 317 320 325 323 323 323 323 321 322 323 321 315 308 306 305 306 300 297 297 297 290 292 293 291 289
225 225 226 231 233 236 246 246 241 241 242 245 249 250 256 264 274 282 288 296 296 298 303 308 309 315 316 315 317 320 319 321 321 320 317 315 310 304 303 301 292 292 297 296 292 290 290 288 285
226 226 226 227 231 235 244 245 241 242 244 246 248 249 254 263 272 278 283 287 290 294 297 304 308 311 309 307 308 312 316 319 321 323 320 314 311 306 305 300 294 295 295 294 294 294 294 289 287
226 226 228 230 232 233 241 247 242 242 242 244 248 249 252 259 266 275 280 284 290 293 294 299 304 306 308 306 305 307 311 312 314 316 318 317 315 316 313 307 305 301 300 299 299 301 300 295 292
227 228 230 231 235 234 233 246 245 240 241 244 246 247 249 255 263 272 276 281 288 291 292 295 300 303 307 304 302 302 306 306 306 308 311 309 311 313 312 311 309 304 301 303 301 299 299 296 296
Height
5910 5909 5909 5909 5908 5909 5906 5905 5903 5902 5901 5899 5898 5897 5896 5896 5896 5897 5893 5892 5892 5891 5890 5889 5889 5888 5888 5887 5887 5886 5886 5886 5886 5886 5886 5886 5886 5886 5887 5887 5887 5888 5888 5888 5889 5889 5889 5890 5890
5912 5912 5912 5912 5912 5911 5909 5907 5906 5905 5904 5902 5900 5899 5898 5897 5897 5896 5894 5894 5894 5893 5892 5891 5890 5890 5890 5889 5889 5888 5888 5888 5888 5888 5887 5888 5888 5888 5888 5888 5888 5889 5889 5890 5890 5891 5891 5891 5892
5915 5915 5916 5916 5915 5914 5912 5910 5908 5907 5905 5904 5903 5902 5901 5900 5899 5898 5897 5896 5896 5895 5894 5893 5892 5892 5891 5891 5890 5890 5890 5889 5889 5889 5889 5889 5889 5889 5889 5889 5889 5890 5891 5891 5891 5892 5892 5893 5893
5918 5919 5919 5919 5917 5916 5914 5912 5910 5909 5908 5906 5905 5904 5902 5902 5901 5900 5899 5898 5897 5896 5895 5895 5894 5894 5893 5892 5892 5892 5891 5891 5891 5890 5890 5890 5891 5891 5891 5891 5891 5891 5892 5892 5892 5893 5894 5894 5894
5921 5921 5923 5922 5920 5919 5917 5915 5913 5911 5910 5909 5908 5906 5905 5904 5903 5902 5901 5900 5899 5898 5897 5896 5896 5895 5895 5894 5894 5893 5893 5892 5892 5892 5892 5892 5892 5892 5892 5892 5892 5893 5893 5893 5894 5894 5895 5895 5896
5924 5925 5926 5924 5922 5921 5919 5917 5915 5914 5913 5911 5910 5909 5907 5906 5906 5905 5903 5902 5901 5900 5899 5898 5897 5897 5896 5896 5895 5895 5894 5894 5894 5893 5893 5893 5893 5893 5893 5893 5894 5894 5895 5895 5895 5896 5896 5897 5897
5927 5928 5927 5926 5925 5923 5922 5920 5918 5916 5915 5914 5913 5911 5910 5908 5908 5907 5905 5904 5903 5902 5901 5900 5900 5899 5898 5898 5897 5896 5896 5895 5895 5895 5895 5895 5894 5894 5894 5894 5895 5895 5896 5896 5897 5897 5897 5898 5898
5928 5930 5929 5928 5927 5926 5924 5922 5920 5919 5918 5917 5915 5914 5913 5911 5910 5909 5908 5907 5905 5904 5904 5903 5902 5901 5900 5900 5899 5898 5897 5897 5896 5896 5896 5896 5895 5895 5895 5896 5896 5897 5897 5897 5898 5898 5899 5899 5899
5930 5933 5932 5930 5929 5928 5926 5924 5923 5922 5920 5919 5918 5916 5915 5914 5913 5911 5910 5909 5908 5907 5906 5905 5904 5903 5902 5901 5901 5900 5899 5899 5898 5897 5897 5897 5896 5896 5897 5897 5897 5898 5898 5898 5899 5899 5900 5900 5900
5932 5934 5933 5932 5931 5930 5928 5927 5926 5924 5923 5921 5920 5919 5917 5916 5915 5914 5913 5912 5910 5910 5909 5907 5907 5906 5905 5903 5903 5902 5901 5901 5900 5899 5898 5898 5898 5898 5898 5898 5898 5899 5899 5900 5900 5901 5901 5901 5901
5933 5934 5933 5933 5932 5931 5930 5929 5928 5926 5925 5924 5923 5921 5920 5918 5917 5916 5915 5914 5913 5912 5911 5910 5909 5908 5907 5906 5905 5904 5903 5902 5902 5901 5900 5900 5900 5900 5899 5899 5899 5900 5900 5901 5901 5902 5902 5902 5902
5934 5934 5934 5934 5933 5932 5932 5931 5930 5929 5928 5926 5925 5923 5922 5921 5919 5918 5917 5916 5915 5914 5913 5912 5911 5910 5909 5908 5907 5906 5905 5904 5904 5903 5902 5902 5901 5901 5901 5901 5901 5901 5901 5902 5902 5903 5903 5903 5903
5934 5935 5935 5935 5934 5934 5933 5932 5932 5930 5929 5928 5926 5925 5924 5923 5922 5920 5919 5918 5917 5916 5915 5913 5912 5912 5911 5909 5909 5908 5907 5906 5905 5904 5904 5903 5903 5903 5902 5902 5902 5902 5903 5903 5903 5904 5904 5904 5904
5934 5935 5935 5935 5935 5935 5934 5934 5933 5932 5931 5929 5928 5927 5926 5925 5924 5922 5921 5920 5918 5917 5916 5915 5914 5913 5912 5911 5910 5909 5908 5907 5906 5906 5905 5905 5904 5904 5904 5904 5904 5904 5904 5904 5904 5904 5904 5904 5904
5934 5935 5936 5936 5936 5936 5936 5935 5934 5933 5932 5931 5930 5929 5928 5927 5925 5924 5923 5922 5920 5919 5917 5916 5915 5914 5913 5912 5911 5910 5909 5908 5908 5907 5906 5906 5905 5905 5905 5905 5905 5904 5904 5904 5904 5904 5904 5904 5904
5933 5935 5936 5936 5936 5936 5938 5937 5936 5934 5933 5932 5931 5930 5929 5928 5927 5926 5924 5923 5921 5920 5919 5917 5916 5915 5914 5913 5912 5911 5910 5909 5908 5908 5907 5906 5906 5906 5905 5905 5905 5905 5905 5905 5905 5905 5905 5904 5904
5932 5935 5936 5936 5936 5936 5937 5937 5936 5935 5934 5933 5932 5931 5930 5929 5928 5926 5925 5924 5923 5921 5920 5918 5917 5916 5915 5914 5913 5912 5911 5909 5909 5908 5907 5907 5906 5906 5905 5905 5905 5905 5905 5905 5905 5905 5905 5904 5904
5932 5934 5935 5935 5935 5936 5936 5937 5936 5935 5934 5933 5932 5931 5930 5929 5928 5927 5926 5925 5923 5922 5921 5919 5918 5917 5916 5915 5914 5912 5911 5910 5909 5908 5907 5907 5906 5906 5905 5905 5905 5904 5904 5904 5904 5904 5904 5904 5904
5929 5931 5933 5933 5934 5935 5935 5936 5936 5935 5934 5933 5932 5931 5931 5930 5929 5928 5927 5925 5924 5923 5921 5920 5919 5918 5917 5916 5914 5913 5912 5911 5910 5909 5908 5907 5906 5906 5905 5905 5904 5904 5904 5904 5903 5903 5903 5903 5903
5926 5928 5930 5931 5932 5933 5934 5935 5935 5934 5934 5933 5932 5931 5931 5930 5929 5928 5927 5926 5925 5923 5922 5921 5920 5919 5918 5916 5915 5914 5913 5912 5911 5909 5908 5907 5906 5905 5905 5905 5904 5904 5903 5903 5903 5902 5902 5902 5902
5923 5925 5927 5929 5930 5932 5933 5934 5934 5934 5933 5933 5932 5931 5931 5930 5930 5929 5928 5926 5925 5924 5923 5922 5921 5920 5918 5917 5915 5914 5913 5912 5910 5909 5908 5907 5906 5905 5904 5904 5903 5903 5902 5902 5902 5902 5901 5901 5901
5919 5922 5924 5926 5928 5930 5932 5934 5933 5933 5932 5932 5932 5931 5931 5930 5930 5929 5928 5927 5925 5924 5923 5922 5921 5919 5918 5917 5916 5914 5913 5911 5910 5909 5908 5907 5906 5904 5904 5903 5903 5902 5901 5901 5901 5900 5900 5900 5899
5915 5918 5920 5923 5925 5928 5929 5932 5933 5931 5931 5931 5931 5931 5930 5930 5929 5928 5927 5926 5925 5924 5922 5921 5920 5919 5918 5917 5915 5914 5913 5911 5910 5909 5907 5906 5905 5904 5903 5902 5902 5901 5900 5900 5899 5899 5898 5898 5897
5910 5914 5916 5919 5922 5924 5926 5928 5930 5929 5929 5930 5930 5929 5929 5929 5928 5928 5927 5926 5925 5923 5922 5921 5920 5918 5917 5916 5915 5914 5912 5911 5909 5908 5906 5905 5904 5902 5902 5901 5900 5899 5898 5898 5898 5897 5896 5896 5895
5905 5910 5913 5915 5918 5921 5922 5924 5927 5926 5927 5927 5928 5928 5928 5928 5927 5927 5926 5925 5924 5923 5922 5921 5920 5918 5917 5916 5914 5913 5912 5910 5908 5906 5905 5903 5902 5901 5900 5899 5898 5897 5897 5896 5896 5895 5895 5894 5893
5901 5905 5910 5914 5916 5918 5918 5920 5923 5923 5924 5925 5925 5925 5926 5926 5926 5925 5925 5924 5923 5922 5921 5920 5919 5918 5916 5915 5913 5912 5910 5908 5906 5905 5903 5901 5900 5899 5898 5897 5896 5895 5894 5894 5893 5893 5892 5892 5891
5895 5899 5905 5909 5911 5914 5915 5916 5918 5919 5920 5922 5922 5923 5923 5924 5924 5923 5923 5922 5921 5920 5919 5919 5917 5916 5915 5913 5912 5910 5908 5906 5904 5903 5901 5899 5898 5897 5895 5894 5893 5893 5892 5892 5891 5890 5889 5889 5888
5889 5894 5898 5902 5905 5909 5911 5912 5915 5915 5917 5918 5919 5920 5921 5921 5921 5921 5921 5920 5920 5918 5917 5917 5915 5914 5913 5911 5910 5908 5906 5904 5903 5901 5899 5897 5896 5894 5893 5892 5891 5890 5889 5889 5889 5888 5886 5886 5885
5883 5888 5892 5897 5900 5905 5909 5911 5911 5912 5913 5915 5916 5917 5918 5919 5919 5919 5918 5918 5917 5916 5915 5914 5913 5911 5910 5909 5907 5906 5904 5902 5900 5898 5897 5895 5894 5892 5891 5890 5889 5888 5887 5887 5886 5885 5884 5883 5882
5877 5882 5887 5891 5894 5898 5904 5909 5905 5907 5909 5911 5912 5913 5915 5916 5916 5916 5916 5915 5915 5914 5913 5911 5910 5909 5907 5906 5904 5903 5901 5900 5898 5896 5895 5893 5892 5890 5889 5888 5887 5886 5886 5885 5884 5883 5881 5880 5879